Tracking 25963 objects as of 13-Aug-2022
HD Live streaming from Space Station
objects crossing your sky now

STARLINK-1565

Track STARLINK-1565 now!
10-day predictions
STARLINK-1565 is classified as:


NORAD ID: 46037
Int'l Code: 2020-055L
Perigee: 553.3 km
Apogee: 555.4 km
Inclination: 53.1 °
Period: 95.6 minutes
Semi major axis: 6925 km
RCS: Unknown
Launch date: August 7, 2020
Source: United States (US)
Launch site: AIR FORCE EASTERN TEST RANGE (AFETR)
aabbcc
Your satellite tracking list
Your tracking list is empty




NASA's NSSDC Master Catalog

Two Line Element Set (TLE):
1 46037U 20055L   22225.14967430  .00001859  00000-0  14367-3 0  9996
2 46037  53.0537 222.9399 0001550  72.1979 287.9179 15.06398514111757
Source of the keplerian elements: AFSPC